Weather History for Peru, IN

Change the Weather History Date:

Saturday, February 2, 2013

  Actual Average Record
Temperature  
Mean Temperature 21 °F -  
Max Temperature 25 °F 33 °F 44 °F (2006)
Min Temperature 17 °F 20 °F 5 °F (2001)
Degree Days  
Heating Degree Days 44    
Moisture  
Dew Point 17 °F    
Average Humidity 88    
Maximum Humidity 96    
Minimum Humidity 73    
Precipitation  
Precipitation 0.02 in - - ()
Sea Level Pressure  
Sea Level Pressure 30.13 in    
Wind  
Wind Speed 12 mph (WSW)    
Max Wind Speed 16 mph    
Max Gust Speed 22 mph    
Visibility 7 miles    
Events Snow    
Averages and records for this station are not official NWS values.
T = Trace of Precipitation, MM = Missing Value Source: NWS Daily Summary

Daily Weather History Graph

Daily Weather History Graph

Search for Another Location

Airport:

Trip Planner

Search our weather history database for the weather conditions in past years. The results will help you decide how hot, cold, wet, or windy it might be!

Date:

Astronomy

Feb. 02, 2013 Rise Set
Actual Time 7:53 AM EST 6:04 PM EST
Civil Twilight 7:24 AM EST 6:32 PM EST
Nautical Twilight 6:51 AM EST 7:05 PM EST
Astronomical Twilight 6:19 AM EST 7:37 PM EST
Moon 12:11 AM EST (2/2) 11:00 AM EST (2/2)
Length of Visible Light 11h 08m
Length of Day
10h 10m
Waning Gibbous, 60% of the Moon is Illuminated
Feb 2
Waning Gibbous
Feb 3
Last Quarter
Feb 10
New
Feb 17
First Quarter
Feb 25
Full

Hourly Weather History & Observations

Time (EST) Temp. Windchill Dew Point Humidity Pressure Visibility Wind Dir Wind Speed Gust Speed Precip Events Conditions
12:55 AM 17.4 °F 2.9 °F 10.8 °F 75% 30.26 in 10.0 mi SW 15.0 mph - N/A   Overcast
1:32 AM 17.6 °F 4.3 °F 10.4 °F 73% 30.25 in 10.0 mi SW 12.7 mph - N/A Snow Light Snow
1:45 AM 17.6 °F 4.3 °F 12.2 °F 79% 30.25 in 7.0 mi SSW 12.7 mph - N/A Snow Light Snow
1:55 AM 17.4 °F 4.1 °F 13.3 °F 84% 30.25 in 5.0 mi SW 12.7 mph - 0.00 in Snow Light Snow
2:02 AM 17.6 °F 5.0 °F 14.0 °F 86% 30.24 in 6.0 mi SW 11.5 mph - N/A Snow Light Snow
2:18 AM 17.6 °F 5.0 °F 14.0 °F 86% 30.24 in 9.0 mi SW 11.5 mph - N/A Snow Light Snow
2:25 AM 17.6 °F 5.7 °F 14.0 °F 86% 30.24 in 9.0 mi SW 10.4 mph - N/A Snow Light Snow
2:35 AM 17.6 °F 5.7 °F 14.0 °F 86% 30.24 in 8.0 mi SW 10.4 mph - N/A   Overcast
2:39 AM 17.6 °F 5.0 °F 14.0 °F 86% 30.24 in 8.0 mi SW 11.5 mph - N/A   Overcast
2:40 AM 17.6 °F 5.0 °F 14.0 °F 86% 30.24 in 8.0 mi SW 11.5 mph - N/A Snow Light Snow
2:51 AM 17.6 °F 5.0 °F 14.0 °F 86% 30.24 in 9.0 mi SW 11.5 mph - N/A Snow Light Snow
2:55 AM 17.6 °F 4.3 °F 13.8 °F 85% 30.24 in 7.0 mi SW 12.7 mph - 0.00 in Snow Light Snow
3:04 AM 17.6 °F 5.7 °F 14.0 °F 86% 30.24 in 6.0 mi SW 10.4 mph - N/A Snow Light Snow
3:25 AM 17.6 °F 6.4 °F 14.0 °F 86% 30.24 in 6.0 mi SW 9.2 mph - N/A Snow Light Snow
3:31 AM 17.6 °F 6.4 °F 14.0 °F 86% 30.24 in 7.0 mi SW 9.2 mph - N/A Snow Light Snow
3:34 AM 17.6 °F 5.0 °F 14.0 °F 86% 30.24 in 7.0 mi SW 11.5 mph - N/A Snow Light Snow
3:35 AM 17.6 °F 5.0 °F 14.0 °F 86% 30.24 in 7.0 mi SW 11.5 mph - N/A   Overcast
3:54 AM 17.6 °F 5.0 °F 14.0 °F 86% 30.23 in 5.0 mi SW 11.5 mph - N/A Snow Light Snow
4:00 AM 17.6 °F 5.7 °F 14.0 °F 86% 30.23 in 4.0 mi SW 10.4 mph - N/A Snow Light Snow
4:04 AM 17.6 °F 3.7 °F 14.0 °F 86% 30.23 in 4.0 mi SW 13.8 mph - N/A Snow Light Snow
4:06 AM 17.6 °F 5.0 °F 14.0 °F 86% 30.22 in 4.0 mi SW 11.5 mph - N/A Snow Light Snow
4:07 AM 17.6 °F 4.3 °F 14.0 °F 86% 30.22 in 4.0 mi SW 12.7 mph - N/A Snow Light Snow
4:11 AM 17.6 °F 4.3 °F 14.0 °F 86% 30.22 in 5.0 mi SW 12.7 mph - N/A Snow Light Snow
4:13 AM 17.6 °F 4.3 °F 14.0 °F 86% 30.22 in 5.0 mi SSW 12.7 mph - N/A Snow Light Snow
4:27 AM 17.6 °F 5.0 °F 14.0 °F 86% 30.20 in 4.0 mi SSW 11.5 mph - N/A Snow Light Snow
4:28 AM 17.6 °F 5.0 °F 14.0 °F 86% 30.20 in 4.0 mi SSW 11.5 mph - N/A Snow Light Snow
4:34 AM 17.6 °F 4.3 °F 14.0 °F 86% 30.20 in 4.0 mi SSW 12.7 mph - N/A Snow Light Snow
4:37 AM 17.6 °F 4.3 °F 14.0 °F 86% 30.19 in 5.0 mi SSW 12.7 mph - N/A Snow Light Snow
4:55 AM 17.8 °F 4.6 °F 14.9 °F 88% 30.17 in 6.0 mi SSW 12.7 mph - 0.00 in Snow Light Snow
5:03 AM 17.6 °F 5.0 °F 15.8 °F 93% 30.17 in 5.0 mi South 11.5 mph - N/A Snow Light Snow
5:34 AM 17.6 °F 3.7 °F 15.8 °F 93% 30.15 in 5.0 mi SSW 13.8 mph - N/A Snow Light Snow
5:38 AM 17.6 °F 4.3 °F 15.8 °F 93% 30.15 in 7.0 mi SSW 12.7 mph - N/A   Overcast
5:44 AM 17.6 °F 3.7 °F 15.8 °F 93% 30.15 in 10.0 mi SSW 13.8 mph - N/A   Overcast
5:47 AM 17.6 °F 3.7 °F 15.8 °F 93% 30.15 in 9.0 mi SSW 13.8 mph - N/A   Overcast
5:51 AM 17.6 °F 3.7 °F 15.8 °F 93% 30.14 in 8.0 mi SSW 13.8 mph - N/A   Overcast
5:55 AM 18.5 °F 3.8 °F 16.2 °F 91% 30.14 in 7.0 mi SSW 16.1 mph - 0.00 in   Overcast
5:58 AM 19.4 °F 5.5 °F 15.8 °F 86% 30.14 in 7.0 mi SSW 15.0 mph - N/A Snow Light Snow
6:03 AM 19.4 °F 5.0 °F 15.8 °F 86% 30.14 in 6.0 mi SSW 16.1 mph - N/A   Overcast
6:06 AM 19.4 °F 5.5 °F 15.8 °F 86% 30.13 in 6.0 mi SSW 15.0 mph - N/A Snow Light Snow
6:17 AM 19.4 °F 5.0 °F 15.8 °F 86% 30.13 in 5.0 mi SSW 16.1 mph - N/A   Overcast
6:33 AM 19.4 °F 5.5 °F 15.8 °F 86% 30.12 in 7.0 mi SSW 15.0 mph - N/A   Overcast
6:41 AM 19.4 °F 5.5 °F 15.8 °F 86% 30.11 in 10.0 mi SSW 15.0 mph - N/A   Overcast
6:55 AM 19.0 °F 4.5 °F 16.5 °F 90% 30.11 in 10.0 mi South 16.1 mph - 0.00 in   Overcast
7:55 AM 19.9 °F 6.2 °F 16.5 °F 87% 30.10 in 10.0 mi SSW 15.0 mph - N/A   Overcast
8:40 AM 21.2 °F 7.8 °F 17.6 °F 86% 30.09 in 10.0 mi SW 15.0 mph 21.9 mph N/A Snow Light Snow
8:49 AM 21.2 °F 8.3 °F 17.6 °F 86% 30.09 in 8.0 mi SW 13.8 mph 21.9 mph N/A Snow Light Snow
8:55 AM 21.0 °F 8.6 °F 17.6 °F 87% 30.09 in 6.0 mi SW 12.7 mph - 0.00 in Snow Light Snow
9:06 AM 21.2 °F 9.5 °F 17.6 °F 86% 30.09 in 2.0 mi SW 11.5 mph - N/A Snow Light Snow
9:32 AM 21.2 °F 8.3 °F 19.4 °F 93% 30.09 in 5.0 mi SW 13.8 mph - N/A Snow Light Snow
9:55 AM 22.1 °F 8.5 °F 19.4 °F 89% 30.08 in 1.8 mi SW 16.1 mph - 0.00 in Snow Light Snow
10:10 AM 23.0 °F 10.1 °F 19.4 °F 86% 30.07 in 5.0 mi SW 15.0 mph - N/A Snow Light Snow
10:29 AM 23.0 °F 10.6 °F 19.4 °F 86% 30.01 in 4.0 mi SW 13.8 mph - N/A Snow Light Snow
10:55 AM 23.4 °F 12.2 °F 21.0 °F 91% 30.05 in 2.0 mi SW 11.5 mph - 0.00 in Snow Light Snow
11:38 AM 24.8 °F 12.9 °F 21.2 °F 86% 30.05 in 10.0 mi WSW 13.8 mph - N/A   Overcast
11:55 AM 24.3 °F 12.2 °F 21.0 °F 87% 30.04 in 10.0 mi WSW 13.8 mph - 0.00 in   Overcast
12:55 PM 24.6 °F 12.2 °F 21.6 °F 88% 30.01 in 10.0 mi WSW 15.0 mph - N/A   Overcast
1:55 PM 25.0 °F 13.6 °F 22.3 °F 89% 30.00 in 10.0 mi West 12.7 mph - N/A   Overcast
2:55 PM 25.3 °F 15.3 °F 22.1 °F 87% 30.00 in 7.0 mi West 10.4 mph - 0.00 in Snow Light Snow
3:05 PM 24.8 °F 15.3 °F 23.0 °F 93% 30.00 in 7.0 mi West 9.2 mph - N/A   Overcast
3:55 PM 25.5 °F 15.5 °F 22.8 °F 89% 30.01 in 7.0 mi West 10.4 mph - 0.00 in   Overcast
3:59 PM 24.8 °F 14.6 °F 23.0 °F 93% 30.01 in 7.0 mi WNW 10.4 mph - N/A Snow Light Snow
4:47 PM 24.8 °F 14.6 °F 23.0 °F 93% 30.02 in 2.0 mi West 10.4 mph - N/A Snow Light Snow
4:55 PM 25.3 °F 15.3 °F 23.2 °F 91% 30.02 in 1.5 mi WNW 10.4 mph - 0.00 in Snow Light Snow
5:47 PM 24.8 °F 17.9 °F 23.0 °F 93% 29.99 in 4.0 mi WNW 5.8 mph - N/A Snow Light Snow
5:55 PM 24.6 °F 16.7 °F 23.7 °F 96% 30.03 in 4.0 mi West 6.9 mph - 0.01 in Snow Light Snow
6:55 PM 23.7 °F 14.0 °F 21.4 °F 91% 30.04 in 7.0 mi NNW 9.2 mph - 0.01 in Snow Light Snow
7:19 PM 23.0 °F 13.9 °F 21.2 °F 93% 29.99 in 7.0 mi NW 8.1 mph - N/A Snow Light Snow
7:40 PM 23.0 °F 14.7 °F 19.4 °F 86% 30.00 in 7.0 mi NNW 6.9 mph - N/A Snow Light Snow
7:55 PM 22.5 °F 14.1 °F 19.9 °F 90% 30.05 in 7.0 mi NNW 6.9 mph - 0.00 in Snow Light Snow
8:55 PM 21.6 °F 9.9 °F 19.8 °F 93% 30.06 in 7.0 mi NW 11.5 mph - 0.00 in Snow Light Snow
9:55 PM 19.6 °F 8.9 °F 17.2 °F 91% 30.06 in 7.0 mi NW 9.2 mph - 0.00 in Snow Light Snow
10:55 PM 18.3 °F 5.2 °F 15.4 °F 89% 30.06 in 7.0 mi WNW 12.7 mph - 0.00 in Snow Light Snow
11:19 PM 17.6 °F 5.7 °F 15.8 °F 93% 30.06 in 7.0 mi WNW 10.4 mph - N/A Snow Light Snow
11:25 PM 17.6 °F 5.7 °F 15.8 °F 93% 30.06 in 9.0 mi NW 10.4 mph - N/A Snow Light Snow
11:29 PM 17.6 °F 6.4 °F 15.8 °F 93% 30.06 in 9.0 mi WNW 9.2 mph - N/A Snow Light Snow
11:33 PM 17.6 °F 7.3 °F 15.8 °F 93% 30.06 in 8.0 mi WNW 8.1 mph - N/A Snow Light Snow
11:35 PM 17.6 °F 7.3 °F 15.8 °F 93% 30.06 in 8.0 mi WNW 8.1 mph - N/A Snow Light Snow
11:40 PM 17.6 °F 6.4 °F 15.8 °F 93% 30.06 in 7.0 mi WNW 9.2 mph - N/A Snow Light Snow
11:42 PM 17.6 °F 6.4 °F 15.8 °F 93% 30.06 in 7.0 mi WNW 9.2 mph - N/A Snow Light Snow
11:44 PM 17.6 °F 6.4 °F 15.8 °F 93% 30.06 in 8.0 mi WNW 9.2 mph - N/A Snow Light Snow
11:46 PM 17.6 °F 7.3 °F 14.0 °F 86% 30.06 in 8.0 mi WNW 8.1 mph - N/A Snow Light Snow
11:47 PM 17.6 °F 7.3 °F 14.0 °F 86% 30.06 in 9.0 mi WNW 8.1 mph - N/A Snow Light Snow
11:54 PM 17.6 °F 6.4 °F 15.8 °F 93% 30.06 in 8.0 mi WNW 9.2 mph - N/A Snow Light Snow